Weather History for Copper Mountain, CO

Change the Weather History Date:

Saturday, October 13, 2012

  Actual Average (KLXV) Record (KLXV)
Temperature  
Mean Temperature 30 °F -  
Max Temperature 33 °F 51 °F 68 °F (1989)
Min Temperature 26 °F 24 °F 5 °F (1986)
Degree Days  
Heating Degree Days 36 28  
Month to date heating degree days 334  
Since 1 July heating degree days 1632  
Cooling Degree Days 0 0  
Month to date cooling degree days 0  
Year to date cooling degree days 0  
Moisture  
Dew Point 26 °F    
Average Humidity 84    
Maximum Humidity 93    
Minimum Humidity 80    
Precipitation  
Precipitation 0.00 in 0.03 in 0.18 in (2004)
Month to date precipitation 0.38  
Year to date precipitation 10.41  
Sea Level Pressure  
Sea Level Pressure 30.23 in    
Wind  
Wind Speed 21 mph (West)    
Max Wind Speed 33 mph    
Max Gust Speed 39 mph    
Visibility 1 miles    
Events Snow    
T = Trace of Precipitation, MM = Missing Value Source: NWS Daily Summary

Daily Weather History Graph

Daily Weather History Graph

Search for Another Location

Airport:

Trip Planner

Search our weather history database for the weather conditions in past years. The results will help you decide how hot, cold, wet, or windy it might be!

Date:

Astronomy

Oct. 13, 2012 Rise Set
Actual Time 7:13 AM MDT 6:27 PM MDT
Civil Twilight 6:46 AM MDT 6:54 PM MDT
Nautical Twilight 6:14 AM MDT 7:25 PM MDT
Astronomical Twilight 5:43 AM MDT 7:56 PM MDT
Moon 5:06 AM MDT (10/13) 5:12 PM MDT (10/13)
Length of Visible Light 12h 08m
Length of Day
11h 14m
Waning Crescent, 4% of the Moon is Illuminated
Oct 13
Waning Crescent
Oct 15
New
Oct 21
First Quarter
Oct 29
Full
Nov 6
Last Quarter

Hourly Weather History & Observations

Time (MDT) Temp. Windchill Dew Point Humidity Pressure Visibility Wind Dir Wind Speed Gust Speed Precip Events Conditions
4:15 AM 26.6 °F - 21.2 °F 80% 30.14 in 10.0 mi North - - N/A   Overcast
4:55 AM 26.6 °F 13.8 °F 21.2 °F 80% 30.13 in 7.0 mi West 17.3 mph 20.7 mph N/A Snow Light Snow
5:15 AM 26.6 °F 13.8 °F 21.2 °F 80% 30.12 in 2.5 mi West 17.3 mph - N/A Snow Light Snow
5:35 AM 26.6 °F 14.7 °F 21.2 °F 80% 30.13 in 1.5 mi West 15.0 mph - N/A Snow Light Snow
5:55 AM 26.6 °F - 21.2 °F 80% 30.12 in 1.5 mi North - - N/A Snow Light Snow
6:15 AM 26.6 °F - 21.2 °F 80% 30.12 in 0.5 mi North - - N/A Snow Light Snow
6:35 AM 26.6 °F 13.1 °F 21.2 °F 80% 30.12 in 0.5 mi West 19.6 mph - N/A Snow Light Snow
6:55 AM 26.6 °F - 21.2 °F 80% 30.12 in 1.2 mi North - - N/A Snow Light Snow
7:15 AM 26.6 °F - 21.2 °F 80% 30.13 in 1.5 mi North - - N/A Snow Light Snow
7:55 AM 28.4 °F 13.5 °F 23.0 °F 80% 30.13 in 0.2 mi West 26.5 mph 35.7 mph N/A Snow Light Snow
8:35 AM 28.4 °F 14.4 °F 23.0 °F 80% 30.14 in 0.5 mi West 23.0 mph 32.2 mph N/A Snow Light Snow
8:55 AM 28.4 °F 15.1 °F 23.0 °F 80% 30.15 in 0.2 mi West 20.7 mph 26.5 mph N/A Snow Light Snow
9:15 AM 28.4 °F 15.4 °F 23.0 °F 80% 30.15 in 0.5 mi West 19.6 mph 32.2 mph N/A Snow Light Snow
9:35 AM 28.4 °F - 23.0 °F 80% 30.15 in 0.5 mi North - - N/A Snow Light Snow
9:55 AM 28.4 °F 15.8 °F 23.0 °F 80% 30.16 in 0.5 mi West 18.4 mph 31.1 mph N/A Snow Light Snow
10:15 AM 28.4 °F 15.1 °F 23.0 °F 80% 30.17 in 0.2 mi West 20.7 mph 27.6 mph N/A Snow Light Snow
10:35 AM 28.4 °F 13.5 °F 23.0 °F 80% 30.17 in 0.5 mi West 26.5 mph 34.5 mph N/A Snow Snow
10:55 AM 28.4 °F 14.4 °F 23.0 °F 80% 30.18 in 0.2 mi West 23.0 mph 34.5 mph N/A Snow Snow
11:15 AM 28.4 °F 13.8 °F 23.0 °F 80% 30.18 in 0.8 mi West 25.3 mph 32.2 mph N/A Snow Light Snow
11:35 AM 28.4 °F 13.0 °F 23.0 °F 80% 30.17 in 1.2 mi West 28.8 mph 34.5 mph N/A Snow Light Snow
11:55 AM 28.4 °F 14.7 °F 23.0 °F 80% 30.18 in 0.5 mi West 21.9 mph 35.7 mph N/A Snow Snow
12:15 PM 30.2 °F 17.4 °F 26.6 °F 86% 30.19 in 0.5 mi West 20.7 mph - N/A Snow Snow
12:35 PM 30.2 °F 17.8 °F 24.8 °F 80% 30.19 in 0.5 mi West 19.6 mph 27.6 mph N/A Snow Light Snow
12:55 PM 30.2 °F 17.8 °F 26.6 °F 86% 30.20 in 0.2 mi West 19.6 mph 26.5 mph N/A Snow Light Snow
1:15 PM 30.2 °F 17.1 °F 26.6 °F 86% 30.20 in 0.2 mi West 21.9 mph 29.9 mph N/A Snow Snow
1:35 PM 30.2 °F 16.5 °F 26.6 °F 86% 30.20 in 0.2 mi West 24.2 mph 33.4 mph N/A Snow Light Snow
2:15 PM 30.2 °F 15.7 °F 26.6 °F 86% 30.22 in 0.2 mi West 27.6 mph - N/A Snow Heavy Snow
2:35 PM 30.2 °F 17.1 °F 26.6 °F 86% 30.23 in 0.2 mi West 21.9 mph 26.5 mph N/A   Overcast
2:55 PM 32.0 °F 19.5 °F 28.4 °F 87% 30.24 in - West 21.9 mph 26.5 mph N/A   Overcast
3:15 PM 32.0 °F 19.5 °F 28.4 °F 87% 30.25 in - West 21.9 mph - N/A   Overcast
3:35 PM 32.0 °F 18.9 °F 28.4 °F 87% 30.26 in - West 24.2 mph 28.8 mph N/A   Overcast
3:55 PM 32.0 °F 18.6 °F 28.4 °F 87% 30.27 in - West 25.3 mph - N/A   Overcast
4:15 PM 33.8 °F 20.5 °F 30.2 °F 87% 30.27 in - West 27.6 mph 31.1 mph N/A   Overcast
4:35 PM 32.0 °F 18.9 °F 28.4 °F 87% 30.29 in - West 24.2 mph 35.7 mph N/A   Overcast
4:55 PM 32.0 °F 18.6 °F 28.4 °F 87% 30.30 in - West 25.3 mph 35.7 mph N/A   Overcast
5:15 PM 32.0 °F 18.6 °F 28.4 °F 87% 30.31 in - West 25.3 mph 31.1 mph N/A   Overcast
5:35 PM 32.0 °F 18.9 °F 28.4 °F 87% 30.32 in - West 24.2 mph 32.2 mph N/A   Overcast
6:35 PM 32.0 °F 19.5 °F 28.4 °F 87% 30.33 in - West 21.9 mph 26.5 mph N/A   Overcast
6:55 PM 32.0 °F 20.1 °F 30.2 °F 93% 30.34 in - West 19.6 mph 24.2 mph N/A   Overcast
7:55 PM 33.8 °F 22.2 °F 30.2 °F 87% 30.35 in - West 20.7 mph - N/A   Overcast
8:15 PM 33.8 °F 22.8 °F 30.2 °F 87% 30.36 in - West 18.4 mph - N/A   Overcast
8:35 PM 33.8 °F 22.8 °F 30.2 °F 87% 30.36 in - West 18.4 mph 23.0 mph N/A   Overcast
8:55 PM 33.8 °F 21.6 °F 30.2 °F 87% 30.36 in - West 23.0 mph 29.9 mph N/A   Overcast
9:15 PM 33.8 °F 21.9 °F 30.2 °F 87% 30.38 in - West 21.9 mph 28.8 mph N/A   Overcast
9:55 PM 33.8 °F 23.2 °F 30.2 °F 87% 30.40 in - West 17.3 mph 26.5 mph N/A   Overcast
10:15 PM 33.8 °F 22.8 °F 30.2 °F 87% 30.40 in - West 18.4 mph 25.3 mph N/A   Overcast
10:35 PM 33.8 °F 19.4 °F 30.2 °F 87% 30.39 in - West 33.4 mph 39.1 mph N/A   Overcast